Orbital Elements at Epoch 2459200.5 (2020-Dec-17.0) TDB
Reference: JPL 19 (heliocentric ecliptic J2000)
Element | Value | Uncertainty (1-sigma) | Units |
e | .208065799371805 | 3.6144e-08 | |
a | 2.361212783921995 | 1.1402e-08 | au |
q | 1.86992515854834 | 8.2725e-08 | au |
i | 2.914515063162097 | 3.8328e-06 | deg |
node | 53.01844424808271 | 9.9655e-05 | deg |
peri | 218.8149830209531 | 0.0001003 | deg |
M | 201.3314289230106 | 1.3323e-05 | deg |
tp | 2459784.603119348159 (2022-Jul-24.10311935) | 5.1041e-05 | TDB |
period | 1325.2600785275 3.63 | 9.5989e-06 2.628e-08 | d yr |
n | .2716447932242831 | 1.9675e-09 | deg/d |
Q | 2.85250040929565 | 1.3774e-08 | au |
|
| | Orbit Determination Parameters
Additional Information
|